Location: *
(46.3500°N, 10.9000°E)
Time: 21:12:31
(UTC+00:00)

Explorer 7 - Pass Details

Date: 26 April 2021
Orbit: 484 x 677 km, 50.3° (Epoch: 05 May)

Event Time Altitude Azimuth Distance (km) Brightness Sun altitude
Rises 00:18:22 0° 283° (WNW) 2,822 - -28.4°
Reaches altitude 10° 00:21:38 10° 257° (WSW) 1,962 - -28.2°
Maximum altitude 00:23:52 14° 227° (SW) 1,757 - -28.1°
Drops below altitude 10° 00:26:10 10° 197° (SSW) 2,013 - -28.0°
Sets 00:29:36 0° 172° (S) 2,954 - -27.8°
